Wayne, NE

3:00 PM CST on December 12, 2019 (GMT -0600)
Wayne Municipal

Weather History for KLCG - November, 2019

Change the Weather History Date:

Thursday, November 14, 2019

  Actual Average (WUND) Record (WUND)
Temperature  
Mean Temperature 32 °F -  
Max Temperature 44 °F - - (-1)
Min Temperature 19 °F - - (-1)
Degree Days  
Heating Degree Days 34    
Moisture  
Dew Point 22 °F    
Average Humidity 76    
Maximum Humidity 91    
Minimum Humidity 51    
Precipitation  
Precipitation 0.00 in - - ()
Sea Level Pressure  
Sea Level Pressure 30.28 in    
Wind  
Wind Speed 6 mph ()    
Max Wind Speed 9 mph    
Max Gust Speed -    
Visibility 10.0 miles    
Events      
Averages and records for this station are not official NWS values.
T = Trace of Precipitation, MM = Missing Value Source: Averaged Metar Reports

Daily Weather History Graph

Daily Weather History Graph

Search for Another Location

Airport or City:

Astronomy

Nov. 14, 2019 Rise Set
Actual Time 7:16 AM CST 5:07 PM CST
Civil Twilight 6:46 AM CST 5:37 PM CST
Nautical Twilight 6:13 AM CST 6:11 PM CST
Astronomical Twilight 5:39 AM CST 6:44 PM CST
Moon 6:52 PM CST (11/14) 9:15 AM CST (11/14)
Length of Visible Light 10h 50m
Length of Day
9h 50m
Waning Gibbous, 95% of the Moon is Illuminated
Nov 14
Waning Gibbous
Nov 19
Last Quarter
Nov 26
New
Dec 4
First Quarter
Dec 11
Full

Hourly Weather History & Observations

Time (CST) Temp. Windchill Dew Point Humidity Pressure Visibility Wind Dir Wind Speed Gust Speed Precip Events Conditions
12:15 AM 25.7 °F 18.0 °F 23.0 °F 89% 30.17 in 10.0 mi NW 6.9 mph - N/A   Clear
12:35 AM 24.6 °F 17.7 °F 21.9 °F 89% 30.17 in 10.0 mi WNW 5.8 mph - N/A   Clear
12:55 AM 25.7 °F 20.1 °F 22.6 °F 88% 30.18 in 10.0 mi NW 4.6 mph - N/A   Clear
1:15 AM 25.5 °F 16.9 °F 22.1 °F 87% 30.18 in 10.0 mi NW 8.1 mph - N/A   Clear
1:35 AM 25.5 °F 17.8 °F 21.9 °F 86% 30.19 in 10.0 mi NW 6.9 mph - N/A   Clear
1:55 AM 25.7 °F 18.0 °F 21.6 °F 84% 30.19 in 10.0 mi NNW 6.9 mph - N/A   Clear
2:15 AM 24.6 °F 17.7 °F 20.8 °F 86% 30.20 in 10.0 mi NNW 5.8 mph - N/A   Clear
2:35 AM 24.3 °F 18.4 °F 20.5 °F 85% 30.21 in 10.0 mi NNW 4.6 mph - N/A   Clear
2:55 AM 23.5 °F 16.4 °F 19.9 °F 86% 30.21 in 10.0 mi WNW 5.8 mph - N/A   Clear
3:15 AM 23.4 °F 14.3 °F 19.4 °F 85% 30.22 in 10.0 mi NW 8.1 mph - N/A   Clear
3:35 AM 23.0 °F 13.1 °F 18.9 °F 84% 30.22 in 10.0 mi NW 9.2 mph - N/A   Clear
3:55 AM 23.0 °F 13.1 °F 18.3 °F 82% 30.23 in 10.0 mi NW 9.2 mph - N/A   Clear
4:15 AM 23.0 °F 13.9 °F 18.0 °F 81% 30.24 in 10.0 mi WNW 8.1 mph - N/A   Clear
4:35 AM 23.0 °F 13.9 °F 17.6 °F 80% 30.25 in 10.0 mi WNW 8.1 mph - N/A   Clear
4:55 AM 22.1 °F 14.7 °F 17.2 °F 82% 30.26 in 10.0 mi WNW 5.8 mph - N/A   Clear
5:15 AM 21.0 °F 13.4 °F 16.5 °F 83% 30.27 in 10.0 mi WNW 5.8 mph - N/A   Clear
5:35 AM 20.8 °F 14.4 °F 16.5 °F 83% 30.27 in 10.0 mi WNW 4.6 mph - N/A   Clear
5:55 AM 21.0 °F 13.4 °F 16.3 °F 82% 30.28 in 10.0 mi WNW 5.8 mph - N/A   Clear
6:15 AM 21.0 °F 14.6 °F 16.0 °F 81% 30.28 in 10.0 mi WNW 4.6 mph - N/A   Clear
6:35 AM 21.2 °F 12.6 °F 15.8 °F 80% 30.28 in 10.0 mi WNW 6.9 mph - N/A   Clear
6:55 AM 20.3 °F 12.5 °F 15.8 °F 83% 30.29 in 10.0 mi NW 5.8 mph - N/A   Clear
7:15 AM 20.1 °F 11.3 °F 15.4 °F 82% 30.29 in 10.0 mi NW 6.9 mph - N/A   Clear
7:35 AM 19.6 °F 13.0 °F 15.4 °F 84% 30.30 in 10.0 mi NW 4.6 mph - N/A   Clear
7:55 AM 20.1 °F 15.2 °F 15.8 °F 83% 30.30 in 10.0 mi WNW 3.5 mph - N/A   Clear
8:15 AM 21.7 °F 15.5 °F 16.0 °F 78% 30.31 in 10.0 mi WNW 4.6 mph - N/A   Clear
8:35 AM 23.0 °F 17.0 °F 17.1 °F 78% 30.32 in 10.0 mi NW 4.6 mph - N/A   Clear
8:55 AM 24.4 °F 18.6 °F 18.3 °F 78% 30.32 in 10.0 mi NW 4.6 mph - N/A   Clear
9:15 AM 26.2 °F 20.7 °F 18.5 °F 73% 30.32 in 10.0 mi NW 4.6 mph - N/A   Clear
9:35 AM 27.3 °F 22.0 °F 19.6 °F 73% 30.33 in 10.0 mi NNW 4.6 mph - N/A   Clear
9:55 AM 28.8 °F 23.7 °F 20.3 °F 71% 30.32 in 10.0 mi NW 4.6 mph - N/A   Clear
10:15 AM 29.7 °F 22.8 °F 21.0 °F 70% 30.33 in 10.0 mi WNW 6.9 mph - N/A   Clear
10:35 AM 31.6 °F 24.4 °F 22.1 °F 68% 30.33 in 10.0 mi WNW 8.1 mph - N/A   Clear
10:55 AM 32.7 °F 25.0 °F 22.1 °F 65% 30.33 in 10.0 mi NW 9.2 mph - N/A   Clear
11:15 AM 34.0 °F 28.8 °F 22.3 °F 62% 30.33 in 10.0 mi WNW 5.8 mph - N/A   Clear
11:35 AM 35.2 °F 29.5 °F 23.7 °F 63% 30.33 in 10.0 mi West 6.9 mph - N/A   Clear
12:15 PM 38.1 °F 31.7 °F 25.2 °F 60% 30.32 in 10.0 mi WNW 9.2 mph - N/A   Clear
12:35 PM 39.4 °F 33.8 °F 25.5 °F 58% 30.30 in 10.0 mi West 8.1 mph - N/A   Clear
12:55 PM 40.3 °F 34.4 °F 24.8 °F 54% 30.30 in 10.0 mi WNW 9.2 mph - N/A   Clear
1:15 PM 41.2 °F 35.5 °F 24.6 °F 52% 30.29 in 10.0 mi WNW 9.2 mph - N/A   Clear
1:35 PM 42.3 °F 38.6 °F 25.2 °F 51% 30.29 in 10.0 mi NW 5.8 mph - N/A   Clear
1:55 PM 42.4 °F 38.1 °F 25.3 °F 51% 30.28 in 10.0 mi West 6.9 mph - N/A   Clear
2:35 PM 43.9 °F 39.9 °F 27.5 °F 53% 30.28 in 10.0 mi WNW 6.9 mph - N/A   Clear
2:55 PM 43.7 °F 41.1 °F 27.5 °F 53% 30.28 in 10.0 mi NNW 4.6 mph - N/A   Clear
3:15 PM 43.7 °F 41.1 °F 27.7 °F 53% 30.28 in 10.0 mi West 4.6 mph - N/A   Clear
3:35 PM 44.1 °F 42.5 °F 27.9 °F 53% 30.28 in 10.0 mi WNW 3.5 mph - N/A   Clear
3:55 PM 43.9 °F 41.3 °F 28.4 °F 55% 30.28 in 10.0 mi NW 4.6 mph - N/A   Clear
4:15 PM 43.7 °F - 29.3 °F 57% 30.28 in 10.0 mi Calm Calm - N/A   Clear
4:35 PM 42.3 °F - 29.7 °F 61% 30.28 in 10.0 mi Calm Calm - N/A   Clear
4:55 PM 39.6 °F 36.3 °F 28.4 °F 64% 30.28 in 10.0 mi South 4.6 mph - N/A   Clear
5:15 PM 34.7 °F 30.6 °F 27.1 °F 74% 30.28 in 10.0 mi South 4.6 mph - N/A   Clear
5:35 PM 32.0 °F 27.5 °F 25.9 °F 78% 30.28 in 10.0 mi South 4.6 mph - N/A   Clear
5:55 PM 31.8 °F 27.3 °F 26.2 °F 80% 30.28 in 10.0 mi SSW 4.6 mph - N/A   Clear
6:15 PM 32.0 °F 25.6 °F 26.4 °F 80% 30.28 in 10.0 mi SSW 6.9 mph - N/A   Clear
6:35 PM 31.5 °F 25.8 °F 26.4 °F 82% 30.28 in 10.0 mi SSW 5.8 mph - N/A   Clear
6:55 PM 31.1 °F 23.7 °F 26.4 °F 83% 30.28 in 10.0 mi SSW 8.1 mph - N/A   Clear
7:15 PM 30.2 °F 23.4 °F 25.7 °F 83% 30.28 in 10.0 mi South 6.9 mph - N/A   Clear
7:35 PM 30.4 °F 24.5 °F 25.3 °F 82% 30.28 in 10.0 mi South 5.8 mph - N/A   Clear
7:55 PM 28.9 °F 21.9 °F 24.8 °F 84% 30.28 in 10.0 mi South 6.9 mph - N/A   Clear
8:15 PM 29.3 °F 23.2 °F 25.0 °F 84% 30.28 in 10.0 mi SSW 5.8 mph - N/A   Clear
8:35 PM 28.0 °F - 24.6 °F 87% 30.29 in 10.0 mi Calm Calm - N/A   Clear
8:55 PM 25.9 °F 20.3 °F 22.8 °F 88% 30.29 in 10.0 mi South 4.6 mph - N/A   Clear
9:15 PM 25.9 °F 21.7 °F 22.8 °F 88% 30.29 in 10.0 mi SSE 3.5 mph - N/A   Clear
9:35 PM 26.6 °F - 23.5 °F 88% 30.29 in 10.0 mi Calm Calm - N/A   Clear
9:55 PM 25.7 °F - 23.4 °F 91% 30.30 in 10.0 mi Calm Calm - N/A   Clear
10:15 PM 24.6 °F 18.8 °F 21.7 °F 89% 30.30 in 10.0 mi South 4.6 mph - N/A   Clear
10:35 PM 26.1 °F 21.9 °F 22.8 °F 88% 30.30 in 10.0 mi SSE 3.5 mph - N/A   Clear
10:55 PM 25.7 °F - 22.8 °F 89% 30.29 in 10.0 mi Calm Calm - N/A   Clear
11:15 PM 25.7 °F 20.1 °F 23.0 °F 89% 30.29 in 10.0 mi South 4.6 mph - N/A   Clear
11:35 PM 27.1 °F 19.7 °F 23.9 °F 88% 30.28 in 10.0 mi SSW 6.9 mph - N/A   Clear
11:55 PM 29.1 °F 23.0 °F 25.5 °F 86% 30.28 in 10.0 mi SSW 5.8 mph - N/A   Clear